Simultaneous Nadir Overpasses (SNOs) Predictions

Prediction of SNOs between AURA and NPP Satellite Orbit:

Table of predicted SNOs for the next 14.0 days since TLE Epoch: 2/5/2016
Index Date (AURA) Time (AURA) Lat,Lon (AURA) SZA (AURA ) Date (NPP) Time (NPP) Lat,Lon (NPP) SZA (NPP ) Distance(km) Time Diff (sec)
1 02/07/2016 18:19:35 -79.22, -19.85 71.53 02/07/2016 18:18:42 -79.21, -19.90 71.48 1.14 53
2 02/07/2016 19:08:54 79.48, 149.55 108.08 02/07/2016 19:09:19 79.47, 149.41 108.09 3.15 25
3 02/10/2016 10:36:03 -79.32, 96.70 72.51 02/10/2016 10:35:31 -79.32, 96.71 72.49 0.44 32
4 02/10/2016 11:25:22 79.58, -93.89 107.11 02/10/2016 11:26:08 79.57, -93.97 107.09 1.66 46
5 02/13/2016 02:52:32 -79.37,-147.08 73.45 02/13/2016 02:52:22 -79.36,-147.21 73.42 2.95 10
6 02/13/2016 03:41:49 79.70, 22.88 106.06 02/13/2016 03:42:56 79.70, 22.94 106.00 1.29 67
7 02/15/2016 18:19:38 79.24, 160.31 105.86 02/15/2016 18:18:32 79.24, 160.36 105.90 0.97 66
8 02/15/2016 19:08:58 -79.53, -30.15 74.57 02/15/2016 19:09:09 -79.53, -30.08 74.59 1.54 11
9 02/18/2016 10:36:05 79.31, -83.38 104.84 02/18/2016 10:35:21 79.31, -83.36 104.87 0.30 44




NCC Satellite Simultaneous Nadir Overpasses (SNOs) Prediction Service
